Theta_e
357 351 352 352 351 352 349 346 346 346 348 347 348 347 342 336 334 329 329 327 332 340 346 343 344 348 351 351 352 351 350 353 357 350 349 348 347 348 347 349 346 346 346 347 347 349 350 351 354 355 355 355 356 357 355 359 361 359 359 360 360 360 358 354 351 351 350 350 348 348 348 348 350 352
353 356 352 353 350 351 351 348 347 347 348 349 350 350 347 342 338 333 331 331 333 338 344 344 343 348 352 352 352 352 350 355 354 350 349 349 349 346 348 348 346 345 345 345 346 348 350 352 353 351 351 352 351 352 354 357 358 359 359 359 360 358 354 351 350 350 350 349 348 347 347 349 350 350
357 353 351 349 348 349 351 349 349 350 349 350 350 349 348 345 343 339 334 332 336 344 341 344 349 349 350 352 351 350 350 353 353 351 350 350 352 350 349 348 346 346 345 344 344 344 346 348 347 346 348 349 350 352 354 356 357 357 356 357 356 352 348 346 345 346 348 348 347 346 346 348 349 349
357 353 352 351 349 350 350 351 350 349 352 354 350 349 348 345 346 344 339 336 337 342 346 347 349 351 349 351 348 347 348 352 355 351 351 352 353 350 349 350 348 346 345 344 343 342 343 343 343 345 347 348 351 353 355 354 353 352 352 351 349 344 342 341 342 344 344 345 345 345 346 347 348 347
355 354 352 352 352 351 351 351 352 351 351 352 348 347 345 344 344 346 342 337 339 340 343 346 347 350 350 347 345 345 346 348 351 353 351 351 349 349 350 352 350 348 346 344 343 342 341 341 340 342 346 348 350 351 352 349 346 346 345 344 339 336 339 340 340 341 342 343 344 345 345 346 346 345
355 354 351 352 352 352 353 354 353 351 351 352 349 346 346 343 342 345 342 339 336 336 339 341 344 345 349 344 344 344 345 348 351 350 350 350 350 351 352 353 355 349 346 343 342 341 341 341 340 342 343 345 346 346 344 341 339 339 339 335 333 335 335 336 338 339 340 341 343 344 344 344 344 343
353 353 353 354 354 355 352 353 354 354 350 351 350 348 347 345 343 345 345 339 337 337 337 339 341 341 342 343 344 346 348 349 350 348 348 349 352 354 354 355 356 350 347 344 342 342 341 341 340 340 339 342 341 339 338 334 333 334 333 331 333 334 333 332 333 335 336 339 341 342 342 342 341 340
354 354 352 353 354 352 350 350 349 350 350 348 348 347 345 344 344 343 345 344 340 336 335 336 339 341 340 342 344 347 349 346 346 346 348 350 352 353 355 355 356 353 347 345 344 343 342 341 341 339 339 337 334 333 333 333 334 334 331 330 330 330 330 329 329 331 331 332 334 336 337 336 336 334
355 354 354 354 352 350 349 349 348 348 348 349 346 345 343 344 344 346 345 343 342 338 337 338 337 338 340 342 344 345 344 343 345 346 347 349 351 352 355 356 357 351 347 347 345 343 343 343 342 341 339 337 335 335 335 334 334 332 329 328 329 330 330 329 327 328 327 327 328 328 329 332 333 332
356 356 355 354 353 351 349 349 349 347 346 345 344 343 343 342 341 341 341 343 342 340 340 338 339 338 341 340 339 341 344 344 345 346 347 348 349 351 352 354 357 357 355 354 355 348 346 346 342 341 339 337 336 337 336 336 335 332 328 325 326 329 328 328 328 327 325 325 326 327 328 329 330 331
356 356 355 354 354 352 351 350 350 349 346 346 343 344 343 341 340 341 341 343 341 341 340 340 340 340 339 339 340 342 343 343 344 342 346 348 350 350 349 352 354 354 353 351 349 349 348 347 348 338 337 338 338 338 337 337 337 336 330 326 327 328 327 327 328 328 326 325 324 323 322 323 327 330
356 355 355 355 354 353 352 351 350 348 347 345 343 342 341 343 342 341 341 341 341 339 340 339 339 336 336 338 340 342 340 340 339 343 345 346 349 351 351 350 350 351 351 350 352 350 351 350 348 342 343 343 342 341 341 343 342 338 332 329 331 331 329 328 328 328 327 325 323 322 320 319 322 324
354 354 355 354 354 356 362 364 362 358 356 348 344 343 342 343 342 340 339 341 339 339 339 341 338 336 335 336 335 338 336 337 340 343 345 345 350 350 349 349 350 351 348 349 350 352 354 353 352 352 352 353 352 349 345 346 345 339 332 331 331 331 330 329 329 328 327 326 325 323 321 320 320 322
352 352 352 355 363 365 366 368 371 371 367 363 353 346 342 343 342 339 338 339 341 341 338 337 335 335 335 336 336 337 338 342 343 346 347 347 349 347 345 345 345 349 348 347 347 350 354 352 350 351 350 352 353 352 353 350 341 337 333 332 332 331 331 330 330 329 327 325 325 324 322 321 321 320
350 349 349 349 356 363 368 362 366 365 368 367 365 363 359 352 344 340 339 340 340 339 339 335 335 335 336 339 340 339 342 343 343 345 346 347 345 342 339 338 343 347 348 346 346 348 352 350 348 349 349 349 350 352 353 340 338 334 334 333 333 332 332 332 332 330 328 326 324 323 322 323 323 321
349 348 348 349 350 353 353 352 352 360 369 366 366 365 364 363 360 355 347 343 339 336 336 336 338 336 339 340 340 342 341 343 344 345 344 341 341 340 338 338 337 345 349 346 345 345 349 349 349 346 346 347 348 350 342 337 336 334 333 333 333 333 332 331 331 331 330 328 327 325 323 323 324 323
347 347 347 348 352 353 368 362 347 347 354 366 362 364 366 367 363 349 347 348 346 341 339 340 339 340 339 339 343 344 346 346 346 343 341 339 338 337 338 339 340 345 349 347 344 342 346 346 346 342 341 343 346 349 343 338 336 334 333 333 333 332 332 331 330 330 329 328 326 323 321 321 322 322
347 345 344 346 347 343 344 342 344 346 348 350 352 350 345 346 357 362 348 345 347 349 345 342 343 344 344 344 343 350 349 347 345 341 339 338 338 339 339 342 344 347 351 346 343 338 341 344 343 337 337 341 344 347 341 334 334 335 332 332 331 331 330 329 329 328 328 328 327 324 320 321 321 321
344 344 346 348 346 342 338 340 344 346 348 348 350 346 347 346 348 349 352 353 351 349 349 346 346 347 347 347 348 349 346 344 344 344 342 341 341 342 343 343 344 347 348 346 339 333 335 339 336 333 335 339 341 344 341 336 336 334 332 332 331 329 328 327 327 327 328 328 327 324 322 321 321 321
345 346 348 346 342 339 337 342 339 350 351 349 349 348 347 345 346 345 347 335 343 345 343 346 349 349 345 338 340 341 338 337 336 340 341 340 338 336 334 336 340 340 345 342 331 328 327 333 330 331 335 337 337 342 348 340 338 335 333 330 328 327 325 325 325 326 327 326 325 324 322 319 319 322
350 349 348 344 340 337 336 333 325 335 357 346 345 342 341 341 342 341 340 337 336 335 333 331 332 330 332 330 327 328 328 331 334 335 334 336 338 335 333 334 335 338 340 342 333 327 324 327 328 330 332 335 336 341 347 345 337 333 330 326 326 325 324 324 324 325 324 323 322 321 320 317 320 327
351 352 358 350 340 337 334 323 325 333 347 340 339 341 338 339 339 339 334 339 341 339 339 337 336 336 336 336 337 333 330 330 338 338 334 338 335 333 333 330 331 336 337 338 333 326 323 327 329 329 331 334 333 340 340 339 339 335 327 324 324 323 324 325 324 322 320 320 319 319 317 315 321 336
349 349 354 351 342 335 330 319 322 329 342 337 336 336 336 337 337 334 331 336 339 340 340 340 345 345 346 342 339 340 337 336 341 336 336 336 333 331 331 332 329 327 331 337 333 326 325 327 328 329 328 325 331 339 333 331 335 333 329 329 331 324 326 325 323 319 318 318 318 318 316 315 320 334
340 336 333 334 325 321 319 317 316 319 326 330 330 334 334 334 333 332 331 338 338 336 338 338 342 341 338 335 333 332 334 337 340 335 336 335 334 331 329 331 327 325 328 329 334 327 324 325 325 330 326 325 325 327 326 323 328 328 326 326 327 327 327 325 322 319 316 317 317 317 316 315 317 329
338 335 335 335 326 317 316 314 313 314 320 331 332 331 331 334 337 333 330 336 343 335 338 342 338 332 330 329 329 330 331 334 334 334 333 334 333 332 329 324 325 321 324 329 335 328 324 325 324 324 322 323 326 321 321 322 323 324 328 325 325 329 324 322 322 322 318 317 316 315 315 315 316 320
339 339 339 337 328 317 318 314 310 308 312 319 332 332 322 316 322 332 336 334 335 336 339 335 329 327 326 325 327 329 329 330 335 329 327 328 329 330 329 326 323 322 323 328 332 327 324 322 324 321 319 320 319 319 316 317 319 322 323 325 326 328 322 319 319 320 321 322 323 319 318 316 317 318
331 331 331 332 326 313 309 307 307 308 310 319 324 317 316 317 321 331 333 335 335 336 334 327 325 325 324 325 325 327 326 326 327 326 325 325 325 328 332 333 328 326 326 326 329 327 323 319 324 319 317 318 317 316 316 314 317 321 322 323 324 326 323 318 318 320 322 321 322 317 316 317 318 319
327 325 325 324 311 309 306 307 310 310 314 323 314 311 314 318 325 332 333 332 334 334 326 325 323 324 324 323 323 325 327 326 323 326 326 325 326 327 327 326 331 329 325 323 324 324 323 319 319 320 317 317 315 313 314 317 320 319 320 323 322 324 322 320 318 322 323 321 320 320 320 321 323 324
325 320 311 309 310 312 312 314 314 316 315 310 311 310 314 327 330 331 332 333 330 323 323 323 323 324 325 324 326 325 324 326 325 327 327 328 328 328 328 326 328 325 324 324 321 320 319 318 318 318 317 316 315 316 316 315 317 319 322 321 316 319 320 318 318 317 320 320 319 320 319 319 320 324
318 315 314 313 313 316 320 327 329 329 330 324 318 314 322 332 332 333 334 329 325 323 324 325 323 323 324 323 324 326 324 323 322 325 325 323 324 324 323 321 320 321 321 321 320 320 319 318 318 318 316 317 316 316 316 316 317 318 321 318 318 320 319 317 317 317 320 318 319 319 319 320 321 325
316 321 327 325 320 318 320 322 324 325 329 332 329 327 331 330 331 335 330 324 324 324 323 323 323 323 324 326 326 322 322 322 322 324 323 320 321 323 321 318 316 316 316 317 318 322 320 318 318 318 315 315 316 315 316 318 316 315 315 317 319 312 315 317 317 317 317 318 318 317 318 318 319 327
314 319 324 323 328 328 327 326 326 326 329 332 331 329 331 333 334 334 335 332 326 324 323 323 324 324 323 321 320 321 321 321 322 322 322 321 317 319 317 313 313 313 313 314 315 318 324 319 318 317 316 315 313 314 316 315 313 313 314 316 317 316 318 316 316 317 318 318 316 315 316 316 316 318
315 317 319 321 322 321 323 324 325 326 328 328 329 331 328 327 326 325 322 320 320 321 321 320 321 321 321 320 320 321 319 320 318 318 317 318 316 315 313 311 312 311 310 311 313 314 315 315 320 318 316 316 315 313 313 310 311 312 312 313 314 313 314 315 316 315 316 315 314 314 314 315 316 317
314 315 316 318 319 320 320 323 325 325 323 322 322 323 325 324 322 321 320 319 319 320 319 319 318 317 318 317 317 317 318 317 316 315 317 314 315 312 310 309 309 311 312 310 311 312 313 314 313 312 312 314 315 313 313 311 309 310 312 312 312 312 314 314 313 314 314 313 313 311 311 312 314 315
314 315 317 318 318 319 320 321 320 321 321 321 320 320 321 322 321 321 319 318 318 318 318 317 317 316 315 314 316 316 319 317 313 313 315 314 314 313 311 309 310 310 310 310 310 311 313 311 310 309 307 307 306 306 317 315 308 309 311 310 311 311 310 311 312 311 311 311 311 309 309 310 311 314
316 316 316 316 316 317 318 320 322 320 319 319 319 319 319 318 320 317 316 315 317 316 316 315 315 315 315 315 315 314 313 313 311 310 311 310 310 310 310 311 312 310 308 308 310 311 311 309 309 307 304 303 303 301 303 314 315 309 309 308 309 309 308 308 310 309 308 307 309 308 307 307 309 312
315 315 315 314 315 315 315 315 316 317 317 317 317 317 317 316 316 316 316 315 316 315 314 312 311 311 312 312 311 311 311 310 308 309 308 308 308 308 307 309 310 309 307 308 309 309 308 307 308 306 302 301 299 299 301 305 309 311 310 307 307 307 307 307 307 306 307 307 307 307 307 308 308 311
314 314 313 314 314 314 315 314 314 314 314 315 314 314 314 314 313 313 314 313 313 312 312 310 311 310 310 310 308 307 307 308 308 307 307 307 306 306 306 306 305 305 306 307 309 308 306 305 306 306 303 300 298 297 297 301 303 306 311 308 306 306 307 306 305 304 305 306 306 307 309 308 309 311
313 313 312 311 312 311 311 312 313 312 312 312 312 312 311 311 311 311 311 311 310 310 309 309 309 309 308 308 309 308 306 306 305 306 306 306 306 304 305 305 305 304 304 304 305 305 305 303 305 304 302 300 298 298 300 299 300 305 308 307 306 306 306 305 304 304 304 304 306 308 309 311 312 314
312 312 311 311 310 310 309 310 309 310 310 311 311 310 310 310 309 309 309 309 308 308 307 307 308 306 306 306 306 305 305 305 305 304 304 304 306 306 304 305 304 303 301 302 303 302 302 302 305 303 302 301 302 303 303 303 304 306 306 307 306 306 306 306 304 304 304 305 306 305 305 307 307 309
309 307 307 308 307 308 307 307 306 308 307 308 310 311 309 308 308 308 307 306 306 304 303 303 303 303 303 303 305 304 303 303 303 305 305 303 304 304 305 305 302 303 301 300 300 300 301 302 307 307 306 303 303 303 301 298 298 299 301 304 306 307 308 309 306 305 304 306 305 304 304 305 305 306
306 305 305 305 304 305 305 305 305 305 305 306 306 306 306 307 308 308 306 306 304 304 302 302 302 303 302 303 304 304 302 301 302 302 303 302 301 301 303 302 300 300 299 298 298 299 301 303 306 305 303 302 301 298 297 298 297 299 301 303 305 306 307 307 308 308 307 306 305 304 304 304 304 303
305 303 303 305 304 304 304 304 304 304 304 305 304 303 302 301 301 301 301 301 301 302 301 301 302 303 302 302 304 304 302 301 300 301 301 301 301 300 299 299 300 299 299 299 299 301 301 302 301 301 300 300 300 300 297 299 300 300 301 301 303 304 306 308 308 308 309 310 309 308 306 304 301 299
303 303 302 303 303 303 303 303 303 304 303 303 303 302 301 298 297 297 297 297 297 297 298 298 299 299 299 299 299 300 301 300 299 299 299 299 299 299 298 298 299 298 297 298 298 298 299 300 300 301 298 298 299 299 299 300 300 302 301 301 303 303 303 305 307 308 309 311 310 308 309 309 309 308
303 302 302 302 302 302 302 302 302 301 301 301 300 300 299 297 298 296 296 296 296 296 297 296 296 296 296 298 296 296 298 299 298 298 298 298 297 298 298 297 297 297 296 296 296 296 297 297 298 299 298 299 301 301 302 302 301 302 302 301 302 303 303 304 304 305 304 304 306 307 308 308 309 309
Wind_Speed
2 3 3 5 4 4 2 3 4 4 3 4 4 4 4 4 1 1 2 3 1 3 0 0 3 2 4 5 4 5 5 6 7 5 4 4 4 8 10 10 11 11 12 12 12 11 11 12 12 12 13 13 13 12 12 11 11 12 12 13 13 12 10 10 9 9 9 9 9 9 9 9 9 10
2 2 3 3 4 3 2 4 4 4 5 4 5 4 4 5 3 3 1 4 3 4 3 2 2 4 6 4 5 3 4 6 6 4 4 4 4 9 10 11 12 13 13 14 14 14 14 13 13 13 13 12 12 12 12 13 14 14 13 13 13 13 11 10 9 9 9 9 9 8 9 8 9 9
2 3 3 3 4 4 3 2 3 3 3 4 4 4 3 5 3 4 4 0 3 3 2 3 3 2 4 4 4 4 4 4 4 4 4 4 8 9 8 11 12 13 14 14 14 15 15 14 13 13 13 12 12 12 12 12 13 13 14 13 13 13 12 10 9 9 9 9 8 8 8 8 8 9
2 2 3 3 4 4 3 4 3 4 3 3 4 4 4 4 3 4 4 4 7 3 3 4 7 4 2 5 4 5 5 6 7 4 5 5 7 6 5 8 12 12 13 13 14 14 14 14 14 13 12 12 13 13 13 13 13 13 13 13 14 14 12 10 9 8 8 8 8 7 7 7 7 8
3 3 3 4 4 2 3 4 4 3 2 2 2 3 3 4 3 5 4 4 6 5 3 3 4 4 2 3 2 4 5 6 6 7 4 4 4 4 5 6 9 12 13 14 14 14 14 14 14 14 14 14 14 14 14 14 14 14 15 15 14 14 13 11 9 8 7 7 7 6 7 7 7 7
4 3 3 4 5 2 3 3 3 3 2 3 3 3 4 5 4 4 3 4 2 6 3 3 3 3 0 3 2 3 4 6 5 6 6 5 3 4 5 6 7 11 12 14 13 13 14 14 13 13 14 14 14 14 15 15 14 14 14 14 13 13 13 11 9 8 7 6 6 6 6 6 6 7
4 3 3 5 4 3 3 3 4 3 4 4 5 5 5 5 5 5 5 3 4 6 6 3 3 1 2 1 4 4 2 3 3 4 5 5 4 3 4 5 6 10 12 13 13 13 13 13 13 13 13 13 13 13 13 13 13 14 14 14 14 13 13 11 9 7 7 6 5 5 5 5 6 7
5 5 4 5 4 3 3 4 3 4 4 5 5 4 3 3 4 3 4 6 5 3 2 3 2 2 2 4 3 3 3 3 3 3 4 3 4 4 5 5 6 8 12 12 12 13 13 13 13 13 13 13 13 13 12 12 13 15 15 15 15 15 14 12 9 6 5 6 7 5 5 5 7 7
5 5 5 5 4 3 4 5 4 4 4 4 3 4 3 4 4 4 5 6 4 4 5 5 3 2 2 3 4 2 2 4 3 3 3 3 4 5 4 4 6 8 10 10 11 12 12 13 14 14 14 13 13 12 12 12 15 15 15 15 15 15 15 14 11 9 6 6 6 7 5 6 6 7
5 5 5 5 5 4 4 6 5 4 5 4 4 5 5 4 3 3 4 4 4 4 5 4 5 2 3 3 3 2 1 3 5 5 5 3 3 4 6 5 5 5 5 5 6 8 9 11 14 14 14 14 14 13 13 13 15 15 15 16 16 15 15 14 13 10 8 7 6 6 6 6 5 6
6 6 6 6 5 5 6 6 6 6 4 4 5 5 5 4 3 3 4 3 4 4 4 4 5 5 3 2 4 2 1 2 2 3 6 6 3 2 3 7 6 5 6 5 6 7 8 10 9 11 13 13 13 13 12 12 14 14 15 15 15 15 15 14 14 12 10 8 7 7 7 7 7 7
6 6 6 6 6 6 6 7 7 5 7 5 6 6 4 4 3 4 4 3 4 4 4 5 5 2 3 4 3 3 3 3 2 0 1 6 8 8 4 3 7 5 5 6 7 7 7 8 9 10 10 11 13 12 10 11 14 14 14 14 14 14 14 14 13 13 12 10 9 8 7 7 7 6
7 6 6 6 7 7 11 13 11 9 8 6 7 6 5 4 4 3 2 3 4 4 4 5 2 2 4 4 3 5 3 3 4 3 1 3 5 5 7 6 3 2 4 5 6 7 5 6 7 7 7 8 10 10 10 9 13 13 13 13 13 13 14 14 14 13 13 12 11 9 8 8 8 7
7 7 6 6 12 13 14 14 11 10 12 12 8 8 5 5 4 4 4 5 5 4 5 5 3 3 5 5 3 2 3 3 3 4 3 5 6 6 7 4 2 4 3 6 7 7 5 5 6 7 7 7 8 6 6 8 9 11 14 14 14 14 14 15 15 14 13 12 12 11 9 9 9 8
8 7 6 5 8 8 8 5 7 9 10 11 11 11 7 7 6 4 4 5 4 3 4 2 2 2 4 5 3 3 4 3 2 3 3 4 4 5 7 9 8 1 5 6 5 7 5 4 6 7 6 7 8 7 7 12 14 14 14 15 14 14 14 15 15 14 14 13 11 11 10 9 9 9
6 7 6 4 4 5 5 4 3 4 5 7 8 10 10 9 10 9 6 5 3 3 3 3 4 2 4 4 3 3 1 3 2 2 2 2 3 4 5 5 5 6 4 5 5 6 4 3 5 7 7 7 7 8 10 13 14 14 15 15 15 15 15 15 15 15 14 13 12 10 9 9 10 10
6 6 6 4 3 3 5 3 2 2 1 1 1 3 4 5 7 8 6 6 4 5 3 3 4 4 3 3 3 1 1 2 4 3 4 3 2 2 4 5 3 7 4 4 4 5 5 4 6 6 7 7 6 8 10 14 13 14 15 15 16 16 16 16 16 15 14 14 13 11 10 10 11 11
1 4 6 5 5 4 3 3 3 2 3 3 2 2 1 1 1 2 4 4 2 2 3 3 3 3 3 3 2 3 3 3 5 5 5 3 3 4 4 4 5 6 3 4 4 4 6 5 6 6 7 7 7 6 9 12 13 14 15 15 16 17 17 17 17 16 15 14 14 12 12 13 13 12
7 7 6 6 7 5 4 4 3 3 3 3 2 2 1 2 2 3 4 2 1 1 2 2 3 2 1 2 3 4 4 4 4 3 4 3 3 4 4 4 3 4 4 6 6 5 7 5 5 5 7 7 7 5 6 11 14 15 15 16 17 17 18 17 17 17 16 16 15 14 14 15 15 14
6 6 4 2 4 5 5 3 3 3 3 3 3 3 1 2 3 4 3 3 6 4 2 1 0 0 1 2 3 4 4 4 3 2 2 1 1 2 3 3 4 3 3 6 7 4 5 5 5 6 6 6 6 5 4 10 14 14 15 17 17 17 17 17 17 17 18 17 17 17 16 17 15 14
5 7 6 4 3 5 4 0 1 2 3 3 3 2 2 1 2 3 2 3 6 6 4 2 1 1 3 5 7 6 4 0 1 1 4 5 3 3 5 3 4 5 4 3 6 3 4 6 5 7 6 5 4 4 6 8 11 14 15 16 16 16 17 16 15 17 18 18 18 18 17 17 15 14
6 8 14 9 6 4 3 2 4 4 1 2 2 2 2 1 1 0 3 2 2 4 3 4 4 1 4 4 3 5 5 3 2 5 5 3 2 4 3 2 2 4 3 3 5 4 3 5 5 7 5 4 2 3 7 7 7 10 12 15 15 16 16 15 15 16 18 18 18 18 18 17 15 10
5 2 7 8 3 2 1 4 7 7 4 3 2 2 2 3 1 0 2 3 3 4 4 4 4 3 5 4 4 4 9 10 8 5 4 3 5 4 3 2 2 2 3 5 6 5 4 6 7 7 6 4 3 3 7 7 6 7 7 8 9 15 16 16 15 16 17 17 17 17 17 17 14 9
5 5 5 6 7 7 4 4 5 6 5 4 3 2 1 1 1 1 1 1 2 2 2 2 2 3 3 3 3 4 5 6 5 5 5 4 3 4 3 2 2 1 2 6 7 3 2 3 6 6 3 3 5 5 4 7 6 6 6 7 6 10 12 14 13 16 17 17 18 17 17 16 13 8
5 5 3 3 4 5 5 4 4 3 3 3 2 3 3 2 3 3 0 1 4 2 2 3 4 4 4 4 4 4 4 5 5 5 4 4 3 3 3 3 4 3 4 7 8 3 3 4 5 6 5 2 2 5 5 4 5 6 7 6 6 6 7 8 6 8 12 15 16 17 17 16 15 11
5 5 4 4 4 5 5 5 5 5 3 2 1 3 4 4 4 1 1 1 1 2 3 5 5 5 5 5 5 4 5 5 4 4 4 4 4 4 3 3 4 5 5 7 10 6 4 6 5 4 3 4 4 4 6 5 3 6 6 6 6 5 7 7 7 7 7 7 8 10 13 16 15 14
5 4 3 3 5 4 3 4 4 4 4 4 2 3 5 4 3 1 2 1 1 2 4 5 5 5 5 5 5 5 5 5 3 4 4 4 4 4 4 5 5 6 3 4 6 5 5 3 3 5 3 3 4 5 3 5 6 6 6 7 6 5 6 6 7 6 7 7 7 11 11 12 13 14
3 3 3 2 1 1 3 5 4 5 6 4 5 7 5 4 4 3 3 3 2 4 5 5 5 5 3 4 4 3 3 3 3 4 4 4 4 4 5 6 5 4 5 6 6 6 5 5 5 4 3 3 4 4 6 4 4 6 8 6 3 5 6 8 6 6 6 6 6 7 7 9 8 8
2 4 7 6 3 3 2 1 5 4 6 10 7 7 6 6 3 3 4 4 5 6 6 5 5 4 3 3 2 1 2 3 4 3 4 4 5 3 3 5 5 5 6 5 6 5 5 5 5 5 4 2 3 3 2 4 3 6 6 8 8 7 5 7 6 7 7 6 7 7 7 7 8 7
8 9 11 10 8 7 4 1 1 2 3 6 6 8 8 4 4 3 4 6 6 7 5 5 5 3 2 2 2 2 4 6 5 4 4 5 6 5 5 5 6 4 5 5 6 5 6 6 5 4 4 5 3 4 4 4 4 5 5 5 6 5 4 8 8 7 8 9 7 6 6 6 7 6
6 7 7 7 9 9 9 6 4 6 9 4 5 5 5 4 3 4 4 7 8 7 7 7 4 3 1 1 3 5 5 5 4 3 3 5 4 4 3 4 5 6 6 6 6 6 6 5 5 5 5 5 5 4 5 3 4 6 6 5 6 7 8 8 7 7 8 8 7 6 5 6 6 6
6 6 8 8 5 3 3 3 3 5 4 4 4 5 4 5 5 7 9 8 6 7 7 6 4 3 3 3 3 4 5 3 3 3 4 3 4 3 2 3 4 4 5 6 6 6 6 5 5 6 4 4 5 5 5 3 4 6 6 5 5 5 5 7 8 8 8 8 8 9 8 7 7 6
5 5 5 6 6 5 4 1 2 2 2 3 4 5 5 5 6 5 5 6 5 5 5 5 5 5 4 4 2 3 4 4 4 3 5 4 5 3 5 5 4 4 6 6 6 6 6 6 5 6 5 5 5 4 4 5 6 6 6 6 6 7 6 7 7 8 9 8 7 7 8 7 7 7
4 4 5 5 5 6 6 6 5 5 5 6 6 6 6 6 5 4 4 4 4 4 5 5 5 4 4 3 3 4 5 5 5 4 4 3 3 4 5 5 5 5 4 6 6 6 6 6 5 5 4 3 5 4 4 5 6 6 6 6 6 7 6 7 8 8 8 7 9 9 8 7 6 7
5 5 6 6 6 6 6 7 6 6 6 6 6 6 6 5 5 5 5 5 4 5 5 5 4 3 4 3 4 5 4 4 4 4 3 3 5 5 4 4 5 5 5 6 6 7 7 7 7 6 4 3 4 3 5 4 5 6 5 5 5 6 7 7 7 7 7 7 7 9 9 6 6 6
6 6 6 7 7 6 8 7 7 7 7 6 6 5 7 6 6 6 5 4 5 5 5 5 5 5 5 5 5 5 5 4 5 4 5 5 5 4 4 5 4 5 5 5 6 6 6 6 7 8 9 9 9 8 4 6 8 5 6 7 6 5 6 7 6 6 7 7 7 7 8 10 9 7
7 7 7 7 7 7 8 7 7 7 7 7 7 7 6 5 5 6 5 6 7 6 6 6 6 5 5 5 5 4 4 4 5 5 5 5 5 5 5 4 5 4 5 5 5 5 5 6 6 6 7 7 8 8 9 3 8 8 4 8 7 5 7 7 7 7 6 6 7 7 7 9 10 9
7 6 7 7 7 7 7 7 7 7 7 7 7 7 6 6 6 6 6 7 7 6 7 6 6 5 5 5 5 5 5 5 5 6 5 5 5 5 5 5 5 5 4 4 4 5 5 5 5 5 5 6 7 9 11 7 3 4 6 6 7 8 7 6 7 8 9 7 7 7 7 8 9 9
6 7 6 6 6 7 7 7 7 7 7 7 7 6 6 6 6 7 7 7 6 6 6 7 7 6 6 6 5 4 5 5 6 5 5 5 4 4 4 4 3 3 3 4 3 4 4 5 5 5 5 5 6 8 8 10 10 6 5 7 7 7 6 6 8 7 8 9 8 7 6 7 10 14
6 6 5 5 6 6 7 6 7 6 7 6 6 6 6 7 6 7 7 7 7 7 7 6 6 6 6 6 5 5 6 6 5 5 5 5 4 3 3 3 3 3 2 3 3 3 3 4 4 4 4 4 6 7 8 9 8 5 4 5 9 7 7 8 9 9 8 8 8 8 9 7 6 4
6 6 6 6 6 6 6 6 6 6 6 6 6 6 6 6 7 6 6 7 6 6 6 6 6 5 5 5 5 5 5 5 5 4 4 4 4 4 5 4 3 3 3 4 3 3 4 4 6 11 7 5 6 6 5 5 7 7 8 6 6 9 12 10 8 7 8 9 8 8 9 10 10 10
5 6 6 6 6 5 6 6 6 5 5 5 6 6 6 6 7 9 8 8 7 6 5 5 5 5 5 4 4 4 5 4 4 4 4 4 4 3 4 3 4 4 4 5 5 5 4 3 4 4 3 4 5 5 6 6 8 8 8 8 7 8 10 13 15 12 9 6 6 7 8 9 8 8
6 6 6 5 5 5 5 5 5 5 5 5 5 5 6 6 6 6 5 6 5 5 5 4 4 5 5 5 5 4 4 5 5 4 4 4 4 4 4 4 4 5 5 5 5 5 5 5 4 5 5 5 4 4 6 7 7 7 7 7 9 8 8 11 12 13 15 15 11 9 8 7 8 10
5 5 5 4 5 5 5 5 5 4 5 5 5 5 6 6 6 6 5 5 5 5 5 5 5 5 5 5 5 5 5 5 5 5 5 5 5 5 5 5 5 4 5 4 5 5 5 5 5 5 5 5 5 4 6 6 7 6 7 7 7 8 9 7 5 7 7 6 8 11 12 12 11 13
4 4 4 4 4 4 4 4 5 4 4 5 5 5 5 5 5 5 5 4 5 4 4 4 4 4 4 3 4 5 4 5 5 5 5 5 4 4 4 4 5 4 5 5 5 6 5 6 6 5 4 5 4 4 5 7 9 9 8 8 9 9 9 9 9 8 7 7 8 12 13 13 13 14
Wind_Direction
238 235 212 213 237 242 194 194 193 189 187 192 185 173 162 164 136 303 324 284 259 304 273 333 296 309 328 336 334 346 341 337 341 337 335 331 319 325 329 340 347 346 341 340 340 338 335 332 332 337 336 330 326 318 318 311 315 321 320 318 315 311 307 296 288 278 266 262 263 266 272 278 278 286
251 253 258 250 257 260 189 210 208 186 192 185 197 202 186 162 170 180 213 275 222 262 301 206 266 320 325 332 330 339 329 326 333 334 333 332 331 332 343 352 349 346 345 344 343 342 340 337 338 340 339 334 327 322 322 326 325 323 322 319 315 316 317 314 302 288 272 262 262 266 273 276 281 290
255 282 282 283 269 279 276 248 220 213 187 205 196 205 168 192 174 168 162 235 285 187 263 290 243 263 301 319 319 324 331 328 342 336 338 338 338 350 349 347 348 344 342 341 340 339 336 334 335 337 336 334 332 331 329 326 323 319 320 319 317 319 320 318 307 293 279 270 267 268 273 276 283 291
273 282 290 277 264 282 286 279 255 231 220 193 196 195 195 199 179 159 166 186 263 238 223 260 290 290 281 306 326 333 339 337 352 346 336 336 342 354 345 345 340 337 338 339 338 336 333 332 332 334 334 332 331 331 330 328 325 321 320 321 323 320 320 318 308 297 284 275 271 271 274 276 284 298
273 268 261 273 264 233 243 258 273 273 241 200 205 191 183 200 192 174 176 202 263 294 248 251 264 310 345 320 340 352 336 335 335 338 330 337 346 338 344 336 331 334 337 337 335 334 332 331 331 331 333 334 334 336 337 339 338 334 332 332 328 325 326 324 314 301 287 279 274 275 277 283 293 306
265 260 263 279 283 223 222 251 260 252 241 209 216 226 204 215 202 210 176 214 219 271 309 293 287 289 359 323 292 6 338 322 330 328 321 326 325 336 342 339 330 332 334 333 332 331 330 330 331 331 333 335 337 341 345 347 346 342 340 336 335 334 331 330 323 309 294 283 280 281 282 288 303 316
259 264 256 265 273 270 245 240 236 220 227 219 218 227 204 216 212 201 203 179 227 253 274 258 295 282 317 279 287 325 307 282 267 286 307 319 322 337 339 332 327 327 330 329 328 328 329 331 332 334 336 339 343 346 349 351 351 350 349 351 354 351 344 340 335 324 308 297 292 291 293 305 314 317
236 239 250 257 259 261 253 254 238 229 224 222 228 242 224 223 229 207 200 216 218 233 257 292 235 282 315 294 281 265 282 284 309 288 291 307 322 328 336 332 323 325 324 326 327 328 329 331 336 340 344 345 347 349 353 358 1 2 3 3 4 4 2 358 351 342 328 308 299 290 297 313 310 310
231 233 231 248 250 249 262 276 269 244 238 243 237 248 229 216 221 200 204 217 214 226 253 277 281 283 283 254 287 283 343 330 327 319 317 305 311 316 317 315 317 315 322 327 327 328 331 335 340 343 347 346 348 354 359 4 7 7 7 6 6 9 11 9 3 353 337 317 303 295 289 293 302 302
233 232 235 241 246 249 243 260 266 264 252 242 234 239 246 236 230 227 220 204 203 207 242 240 291 319 273 316 297 301 38 340 321 322 313 315 303 322 329 329 325 328 326 333 333 333 334 336 336 342 344 345 350 356 358 5 7 6 6 4 4 7 13 14 10 0 342 322 304 292 289 285 279 290
232 225 228 233 231 233 233 241 251 261 259 236 240 234 234 229 214 251 252 208 202 208 237 258 237 267 286 236 284 307 304 268 239 283 323 325 313 300 323 324 324 325 320 315 311 321 322 328 336 336 338 342 347 352 352 5 5 5 3 1 1 3 9 12 11 5 354 332 311 297 290 290 292 296
236 229 227 231 229 223 227 226 239 218 234 230 240 239 232 236 220 242 246 216 207 210 219 235 257 237 264 318 275 285 333 1 349 328 321 309 319 325 329 299 311 312 323 330 338 337 340 340 338 339 337 340 345 350 352 1 2 3 1 359 358 360 3 10 11 7 359 347 326 305 295 292 288 286
238 237 232 232 232 224 226 225 224 214 212 215 230 240 200 204 203 229 232 224 209 218 206 253 242 289 298 279 312 328 333 327 292 288 296 276 293 305 318 320 287 264 321 322 332 332 341 336 340 338 339 339 346 346 349 357 359 358 358 358 359 359 1 4 7 8 4 356 342 324 307 298 294 290
246 240 234 234 233 232 234 240 243 240 232 224 214 236 205 202 191 202 208 219 225 224 235 248 243 282 285 283 286 266 252 272 297 319 323 323 317 326 317 301 277 317 344 339 340 326 332 348 334 341 339 333 343 337 348 354 352 354 359 1 1 1 1 2 2 4 6 2 352 341 329 316 305 297
252 247 240 239 244 248 258 263 271 272 258 240 231 236 221 196 191 194 212 238 218 207 222 225 197 229 272 281 262 253 274 270 266 276 298 302 326 337 338 328 326 307 23 338 334 322 329 4 346 333 332 334 337 338 343 348 355 357 359 1 3 2 2 1 1 2 4 6 2 353 346 338 326 312
256 257 251 242 239 240 242 232 242 259 247 234 239 243 242 228 217 205 200 224 209 194 215 245 246 227 260 271 291 282 260 282 297 281 299 279 305 319 318 305 303 293 1 338 325 310 314 1 346 334 333 334 332 333 334 350 353 358 0 2 1 2 1 1 1 1 3 5 8 6 360 354 345 335
255 260 256 240 247 247 232 194 200 172 145 117 188 235 248 249 234 221 210 202 195 174 182 203 244 219 225 266 276 230 276 334 310 310 316 301 299 278 290 279 295 303 345 338 322 316 313 351 346 337 326 332 331 332 344 349 353 359 1 1 360 359 0 1 1 1 3 6 9 12 10 4 356 346
343 324 310 271 248 243 246 218 202 165 144 129 102 78 49 127 6 155 195 218 218 186 190 180 217 242 162 238 276 307 332 314 297 298 288 296 301 294 273 278 285 285 352 332 321 308 327 343 345 335 321 327 327 331 343 349 355 1 2 2 360 359 359 359 359 1 4 8 12 13 11 6 359 352
224 230 239 249 244 226 221 226 210 168 160 136 135 122 108 75 87 73 56 62 139 200 201 206 234 288 256 258 278 284 290 268 264 262 258 270 273 283 294 292 255 288 16 15 29 339 316 328 348 325 320 322 319 330 345 353 360 4 4 3 1 360 360 0 1 4 9 14 17 17 13 5 358 352
258 262 263 259 279 244 217 212 254 208 166 151 160 156 115 88 77 81 107 80 66 71 76 66 276 359 336 293 282 291 303 308 310 319 342 354 332 345 349 331 335 343 355 37 25 335 312 324 347 319 312 318 315 337 2 357 2 4 4 3 1 1 2 4 8 12 13 13 12 15 13 5 358 355
240 239 234 195 204 275 251 255 13 316 187 142 156 155 141 76 98 95 23 48 65 41 30 30 29 266 279 347 340 2 358 259 255 101 54 23 354 38 12 338 2 339 350 9 20 318 307 330 342 328 324 320 306 340 7 2 358 2 1 1 359 3 3 7 15 16 13 10 8 10 11 6 356 356
230 229 222 194 186 207 275 24 70 49 86 125 134 150 166 205 213 49 2 7 29 34 38 56 13 263 342 14 46 46 55 77 44 60 55 328 22 42 35 349 318 300 347 26 4 358 309 317 346 341 313 319 320 24 16 358 352 1 0 357 358 4 5 8 15 18 13 9 8 7 7 7 356 359
189 212 230 192 144 149 123 44 56 54 75 120 115 147 167 217 251 32 330 24 15 11 16 5 10 21 41 65 52 42 44 45 49 57 59 30 68 59 30 14 328 4 334 17 12 12 319 13 354 4 347 0 304 20 11 348 345 1 360 357 355 2 6 6 13 15 11 9 7 5 5 8 3 1
98 95 85 83 110 133 148 100 73 72 80 114 114 106 112 159 234 186 312 356 83 48 43 351 10 45 49 48 48 45 49 48 49 49 46 52 74 82 67 36 48 101 321 346 353 14 285 43 0 357 25 330 327 328 1 341 346 356 1 357 359 360 6 9 6 6 6 4 3 1 0 2 13 2
130 128 141 106 75 61 45 30 32 55 68 100 129 132 144 166 146 160 120 13 53 58 39 46 64 61 45 44 46 48 46 47 38 42 43 38 49 68 69 58 41 51 8 346 342 55 19 20 7 349 350 351 273 326 321 326 328 357 352 353 358 360 12 9 4 2 1 359 356 354 353 353 3 17
163 161 139 129 113 67 26 346 328 324 329 320 166 172 163 134 142 196 155 117 80 77 78 91 81 69 62 61 50 44 41 33 30 39 36 33 34 40 58 71 70 67 9 340 15 37 28 27 8 349 321 355 309 335 321 327 303 346 341 342 358 1 19 3 3 1 1 350 350 349 339 343 353 3
5 16 62 90 64 47 11 318 291 271 270 268 237 156 161 183 205 200 129 137 95 81 96 91 81 67 64 69 56 43 34 16 25 41 35 30 36 41 36 49 72 85 51 10 22 30 49 34 3 25 338 317 316 319 333 331 327 333 345 358 345 354 12 15 6 355 352 348 341 337 338 343 352 353
27 317 332 23 354 21 2 331 296 254 223 225 184 174 180 172 185 169 152 138 124 110 99 85 78 71 60 74 54 35 18 23 7 45 43 29 37 51 58 58 58 57 45 33 25 29 33 23 360 8 346 342 347 344 331 297 295 324 335 332 336 349 6 6 359 353 352 344 344 345 353 352 346 351
327 287 280 277 288 281 227 325 324 293 240 230 200 183 171 178 166 183 155 135 121 108 104 102 96 85 74 77 72 24 17 34 33 32 25 30 36 46 75 76 61 43 33 26 26 28 32 24 4 340 355 352 6 310 307 298 299 327 338 342 353 343 356 360 354 350 349 353 350 346 350 338 337 343
310 299 295 291 278 270 279 288 16 312 283 234 179 162 169 180 189 189 153 132 121 116 115 103 96 95 65 48 42 56 55 51 34 26 39 35 28 17 21 32 32 28 28 19 26 28 27 23 12 360 345 347 351 337 334 332 321 324 341 358 331 297 0 353 351 346 349 349 345 337 329 333 326 339
341 322 318 305 290 274 275 273 256 264 277 239 152 162 174 172 162 199 162 143 129 124 115 111 121 114 83 47 44 49 57 57 33 21 62 61 38 26 22 56 24 10 1 5 15 20 26 17 8 11 10 338 335 352 328 315 322 341 342 345 4 2 327 335 342 347 344 336 329 324 326 331 332 336
325 322 320 316 311 290 274 258 237 232 219 201 172 158 152 148 145 131 115 97 102 116 122 126 125 99 75 75 78 78 71 70 46 26 63 70 57 30 21 49 19 1 356 356 2 2 15 14 8 1 1 343 340 328 338 336 348 340 333 338 345 325 321 337 338 339 339 332 334 341 338 334 332 328
322 338 349 359 1 13 8 37 126 120 119 76 79 95 97 98 100 100 104 124 128 128 126 122 115 110 101 83 71 97 83 53 42 18 67 49 70 43 49 58 24 5 3 353 352 352 358 359 356 357 347 341 338 339 356 353 346 347 343 332 344 341 337 339 342 335 334 334 333 328 330 329 322 323
316 344 5 9 6 14 29 50 67 82 80 84 81 73 82 85 88 90 86 86 94 90 91 97 96 96 94 86 85 85 79 56 43 26 63 61 50 63 42 39 14 3 8 353 346 347 345 348 349 342 341 343 331 339 18 24 342 339 339 335 342 339 338 340 338 336 337 332 327 326 328 325 319 322
25 22 32 22 20 20 37 48 48 55 64 66 75 77 74 71 72 69 65 50 61 70 76 71 76 75 82 80 62 68 63 75 57 48 33 47 49 51 38 37 13 8 5 357 355 350 351 353 355 356 359 4 356 326 334 9 348 331 330 334 334 332 335 337 331 331 333 328 333 324 316 310 315 303
43 37 43 38 29 27 41 37 42 44 50 49 53 63 69 55 46 49 45 22 57 61 64 64 57 54 60 69 71 72 73 75 61 48 42 33 35 31 30 33 26 10 10 13 3 359 2 3 7 8 0 353 354 341 341 341 342 339 347 335 335 330 327 327 324 323 329 330 329 322 318 322 320 319
46 40 43 45 37 36 39 31 40 42 42 46 46 46 49 47 38 46 41 49 60 54 55 61 55 51 57 66 71 65 60 65 62 49 46 29 39 39 40 29 25 15 13 5 9 11 10 8 8 15 2 352 350 327 311 333 327 316 24 332 325 330 328 324 327 328 326 321 317 315 312 311 310 312
51 42 48 46 44 40 43 40 42 44 41 42 47 51 48 46 48 44 40 51 49 50 45 52 47 46 47 47 60 57 54 50 60 53 42 36 41 37 34 34 25 12 358 353 11 11 7 6 7 11 14 354 330 324 319 318 326 321 345 336 332 327 321 323 330 329 322 321 306 307 307 303 303 308
59 54 49 48 42 47 48 43 44 47 45 44 44 44 48 47 46 44 47 49 46 47 45 46 41 38 39 36 42 50 55 51 50 44 39 35 38 40 27 23 21 5 357 351 353 356 1 3 355 4 8 347 321 305 302 306 309 321 320 332 330 319 322 335 322 317 315 315 313 304 282 268 274 282
50 57 52 54 51 52 52 44 45 42 47 46 49 43 49 51 49 47 46 46 47 43 47 44 39 37 37 29 33 37 47 46 44 42 32 20 17 16 10 7 2 353 351 333 336 338 346 342 333 347 343 308 285 280 281 280 282 292 303 314 316 322 323 327 319 318 314 310 311 316 315 316 318 305
51 46 38 41 50 47 51 49 44 45 45 42 49 54 52 51 54 51 53 50 48 48 46 38 33 36 32 24 28 42 52 37 27 25 27 11 6 1 357 356 341 330 327 318 314 310 318 292 318 334 328 301 291 294 308 316 319 323 322 320 318 315 308 304 303 307 307 313 319 320 325 333 332 332
58 56 49 44 48 42 46 48 43 49 50 50 57 57 53 52 57 61 58 52 48 49 47 41 30 31 28 23 24 35 45 36 23 20 12 3 353 345 345 344 330 326 329 316 317 303 290 290 314 313 301 307 316 341 333 323 314 317 316 316 319 313 308 308 308 305 301 300 314 328 332 327 334 325
68 63 56 48 50 45 44 45 42 52 56 57 58 57 63 59 48 47 43 47 39 42 36 32 26 28 28 18 12 19 28 25 16 357 351 340 342 334 330 325 318 318 312 304 301 305 306 312 313 323 326 329 323 329 314 313 304 302 309 317 315 316 312 310 309 311 314 323 342 338 329 325 332 323
63 68 61 55 55 52 48 52 56 54 63 62 62 64 66 68 62 51 47 47 46 39 33 35 27 25 22 17 9 3 8 4 358 342 336 335 332 327 322 317 317 312 306 305 311 312 313 316 316 323 321 303 298 298 291 300 313 318 313 305 303 310 313 308 296 282 286 290 301 301 306 308 299 294
60 61 61 52 56 56 59 58 63 64 69 71 71 70 71 71 70 62 51 48 45 38 38 36 33 19 11 10 12 354 333 343 339 324 321 317 313 310 309 309 313 314 317 320 325 321 326 325 313 309 286 282 281 284 285 313 323 322 317 315 317 320 318 323 325 330 331 322 318 317 313 308 305 302